Estació meteorològica de Calldetenes (Osona, Plana de Vic)

Consulta les dades en temps real de l'estació meteorològica de Calldetenes





Hora UTC 09:55
Temperatura 17.6 ºC
Sòl 15 cm 19.3 ºC
Humitat 57.7 %
Pressió 1014.3 hPa
Pluja 0.0 mm
Velocitat vent 5.4 km/h
Direcció vent WSW
Radiació solar 498.9 W/m²

Webcam

Dades diàries 2026-05-07



Hora UTC (hivern +1h; estiu +2h)
Temperatura (ºC) Humitat (%) Pressió (hPa) Velocitat vent (km/h) Precipitació (mm) Radiació solar (W/m²)
Hora UTC Aire Sòl 15 cm Humitat Pressió Vel. Dir. Vel. Max Dir. Intent. màx 5 min. Rad. Sol.
00:05 11.2 11.3 82.7 1014.7 2.8 NNW 2.8 N 0.0 0.1
00:10 11.2 11.2 83.7 1014.7 2.9 NNW 7.8 N 0.0 0.1
00:15 11.1 11.1 84.2 1014.7 3.6 NW 5.6 NNW 0.0 0.1
00:20 10.9 10.9 84.7 1014.7 3.7 NNW 5.6 NW 0.0 0.1
00:25 10.8 10.7 85.5 1014.6 2.9 NNW 6.0 NNW 0.0 0.1
00:30 10.7 10.6 85.6 1014.6 1.8 N 4.2 N 0.0 0.1
00:35 10.6 10.4 86.5 1014.6 2.6 NE 3.9 ENE 0.0 0.1
00:40 10.6 10.3 88.5 1014.6 4.3 ESE 6.4 ESE 0.0 0.1
00:45 10.3 10.1 88.2 1014.5 4.1 ESE 5.6 ESE 0.0 0.1
00:50 9.9 9.8 89.5 1014.5 2.8 ESE 4.2 ESE 0.0 0.1
00:55 9.5 9.4 90.7 1014.5 2.6 E 3.5 E 0.0 0.1
01:00 9.3 9.1 92.8 1014.5 4.2 ESE 5.6 ESE 0.0 0.2
01:05 9.6 9.0 93.6 1014.4 3.8 ESE 5.3 ESE 0.0 0.1
01:10 9.3 9.0 92.3 1014.4 5.1 ESE 6.7 ESE 0.0 0.1
01:15 9.0 8.8 92.4 1014.3 4.6 ESE 7.1 ESE 0.0 0.1
01:20 8.5 8.5 93.4 1014.3 1.9 ESE 3.2 ESE 0.0 0.1
01:25 8.1 8.2 94.4 1014.3 0.2 ESE 2.1 ESE 0.0 0.1
01:30 7.9 7.9 95.4 1014.3 0.2 SE 1.8 SE 0.0 0.2
01:35 7.7 7.7 96.2 1014.2 2.6 ESE 6.0 ESE 0.0 0.1
01:40 7.8 7.7 96.9 1014.2 4.1 ESE 6.0 ESE 0.0 0.1
01:45 7.6 7.7 96.1 1014.2 4.5 ESE 8.5 ESE 0.0 0.1
01:50 7.9 7.6 97.3 1014.2 6.4 ESE 8.1 ESE 0.0 0.1
01:55 7.6 7.6 95.1 1014.2 5.4 E 6.4 E 0.0 0.1
02:00 7.4 7.4 96.8 1014.2 5.5 E 7.1 ESE 0.0 0.1
02:05 7.6 7.4 97.5 1014.3 5.2 E 7.8 ESE 0.0 0.1
02:10 7.3 7.4 96.6 1014.3 4.8 E 7.4 ESE 0.0 0.1
02:15 7.9 7.5 97.4 1014.2 7.2 ESE 9.2 ESE 0.0 0.1
02:20 7.6 7.7 95.2 1014.2 6.0 ESE 8.5 ESE 0.0 0.1
02:25 7.3 7.6 95.4 1014.1 5.0 ESE 7.1 E 0.0 0.1
02:30 7.5 7.4 96.9 1014.1 5.6 ESE 7.8 ESE 0.0 0.1
02:35 7.3 7.2 95.6 1014.1 4.6 ESE 6.4 ESE 0.0 0.1
02:40 7.5 7.1 96.8 1014.1 5.8 ESE 7.1 ESE 0.0 0.1
02:45 7.5 7.2 96.4 1014.1 4.2 SE 7.1 ESE 0.0 0.1
02:50 7.3 7.2 95.2 1014.1 1.7 SE 3.9 SE 0.0 0.1
02:55 7.0 7.0 95.8 1014.1 0.0 NNE 0.0 SSW 0.0 0.1
03:00 6.8 6.7 96.2 1014.1 1.8 ESE 4.9 ESE 0.0 0.1
03:05 6.9 6.6 97.2 1014.1 2.5 ESE 4.9 ESE 0.0 0.1
03:10 6.6 6.6 96.6 1014.1 1.5 ESE 3.2 ESE 0.0 0.1
03:15 6.6 6.4 97.0 1014.1 0.5 SE 2.1 ESE 0.0 0.1
03:20 6.6 6.4 97.4 1014.1 0.5 ESE 2.5 SE 0.0 0.1
03:25 6.6 6.4 97.6 1014.1 0.1 SSE 1.4 SSE 0.0 0.1
03:30 6.5 6.3 97.5 1014.1 0.3 SSE 1.8 SSE 0.0 0.1
03:35 6.4 6.1 97.7 1014.1 0.5 SSE 1.8 SSE 0.0 0.1
03:40 6.4 6.0 98.1 1014.1 0.8 SE 3.2 ESE 0.0 0.1
03:45 6.4 6.0 98.2 1014.1 3.3 ESE 4.9 ESE 0.0 0.2
03:50 6.3 6.0 98.1 1014.1 4.4 ESE 5.6 ESE 0.0 0.1
03:55 6.6 6.1 99.1 1014.1 4.1 ESE 5.3 ESE 0.0 0.1
04:00 6.5 6.1 97.8 1014.1 3.3 SE 4.9 ESE 0.0 0.1
04:05 6.2 6.0 97.5 1014.1 0.7 S 2.1 SE 0.0 0.1
04:10 6.1 5.8 97.6 1014.1 0.0 E 1.4 E 0.0 0.1
04:15 5.9 5.7 97.7 1014.1 0.9 ESE 2.8 SE 0.0 0.2
04:20 5.9 5.6 98.0 1014.1 0.4 ESE 1.8 ESE 0.0 0.2
04:25 5.7 5.5 97.7 1014.1 2.2 SW 4.9 SSW 0.0 0.5
04:30 5.9 5.5 98.6 1014.1 2.0 SW 4.2 WSW 0.0 1.0
04:35 5.8 5.5 98.2 1014.1 1.5 SSW 3.2 SSW 0.0 1.9
04:40 5.7 5.4 98.2 1014.1 1.5 SSW 3.5 SSW 0.0 3.0
04:45 5.7 5.3 98.6 1014.1 0.2 SSE 2.1 SSE 0.0 4.5
04:50 5.8 5.4 98.9 1014.1 1.6 SSE 3.2 S 0.0 6.3
04:55 5.7 5.4 98.8 1014.1 1.3 ESE 2.8 ESE 0.0 8.3
05:00 6.0 5.4 99.5 1014.1 2.1 ESE 3.9 ESE 0.0 10.4
05:05 5.6 5.4 98.2 1014.2 1.4 ESE 2.5 ESE 0.0 12.4
05:10 5.7 5.3 99.0 1014.2 1.7 SSE 3.5 SSE 0.0 14.5
05:15 5.6 5.3 98.4 1014.3 0.0 SSE 1.1 SSE 0.0 16.5
05:20 5.3 5.2 98.5 1014.3 0.1 NE 1.1 NE 0.0 18.3
05:25 5.5 5.2 99.3 1014.2 1.4 SSE 2.5 SSE 0.0 20.1
05:30 6.0 5.5 100.0 1014.2 0.4 SE 1.8 SE 0.0 22.1
05:35 6.1 5.7 99.9 1014.3 0.0 NNE 0.0 ESE 0.0 23.8
05:40 6.3 5.9 99.9 1014.3 0.0 NNE 0.0 SE 0.0 25.8
05:45 6.5 6.1 100.0 1014.4 1.3 ESE 2.8 ESE 0.0 27.4
05:50 6.9 6.4 100.0 1014.4 2.0 SE 3.2 SE 0.0 29.6
05:55 7.1 6.7 100.0 1014.5 2.0 SSE 4.2 S 0.0 32.0
06:00 7.2 6.9 99.9 1014.5 1.6 S 4.2 SSE 0.0 34.5
06:05 7.4 7.0 99.8 1014.6 2.2 S 3.9 S 0.0 36.3
06:10 7.7 7.3 98.8 1014.6 2.4 SW 3.9 SSW 0.0 37.8
06:15 7.7 7.5 97.8 1014.6 0.8 W 3.2 WNW 0.0 38.9
06:20 7.7 7.6 97.4 1014.6 0.5 NW 2.1 NW 0.0 40.7
06:25 7.9 7.7 97.2 1014.6 1.7 NW 3.2 WNW 0.0 194.5
06:30 8.0 7.8 97.0 1014.6 1.3 W 3.2 WNW 0.0 235.2
06:35 8.2 7.9 97.1 1014.6 1.3 N 3.5 NNE 0.0 248.5
06:40 8.6 8.1 96.5 1014.6 2.0 NNE 4.9 NNE 0.0 262.5
06:45 8.8 8.3 95.5 1014.5 2.3 NE 3.5 NNE 0.0 275.6
06:50 9.2 8.5 93.1 1014.5 3.1 NNE 4.9 NNE 0.0 289.6
06:55 9.5 8.7 91.5 1014.6 3.1 NNW 5.3 N 0.0 306.7
07:00 9.6 8.9 89.9 1014.6 2.8 NNW 4.6 WNW 0.0 322.0
07:05 9.7 8.9 90.0 1014.6 2.4 N 4.2 NNE 0.0 337.1
07:10 9.7 9.0 89.5 1014.6 0.9 WNW 3.9 WNW 0.0 354.1
07:15 9.9 9.1 90.0 1014.7 2.7 N 5.6 N 0.0 371.7
07:20 10.1 9.2 89.4 1014.7 2.8 NE 4.6 NNE 0.0 387.1
07:25 10.3 9.3 89.1 1014.8 2.6 NNW 6.4 WNW 0.0 400.9
07:30 10.4 9.5 87.5 1014.8 1.8 WNW 5.6 WNW 0.0 417.4
07:35 10.5 9.5 86.9 1014.9 1.0 W 3.9 W 0.0 432.9
07:40 10.6 9.6 86.1 1014.9 0.9 WSW 2.8 WSW 0.0 448.0
07:45 10.7 9.7 85.6 1015.0 0.5 NNW 2.8 NW 0.0 471.0
07:50 10.9 9.9 85.0 1015.0 0.9 WNW 4.6 NNW 0.0 490.0
07:55 11.3 10.1 85.5 1014.8 2.9 N 8.1 N 0.0 494.2
08:00 11.6 10.4 84.6 1014.8 2.4 NNW 4.9 NW 0.0 502.3
08:05 11.7 10.7 83.5 1014.8 2.2 N 6.4 N 0.0 545.2
08:10 12.1 10.9 83.0 1014.8 2.6 N 6.0 N 0.0 524.2
08:15 12.4 11.1 80.5 1014.7 3.7 NW 8.5 NW 0.0 569.8
08:20 12.5 11.4 78.7 1014.7 4.6 NNW 8.1 WNW 0.0 567.5
08:25 12.8 11.5 78.8 1014.6 3.4 NE 6.4 NNE 0.0 576.0
08:30 13.0 11.8 78.3 1014.6 3.8 NNE 6.4 NNE 0.0 580.6
08:35 13.1 12.0 77.8 1014.5 2.2 NNW 6.4 NNE 0.0 619.7
08:40 13.3 12.1 76.9 1014.5 2.1 ENE 6.0 NNE 0.0 611.8
08:45 13.6 12.3 77.2 1014.4 1.8 NE 5.3 NE 0.0 615.1
08:50 13.9 12.5 77.2 1014.4 4.3 NNE 8.5 NNE 0.0 626.7
08:55 14.1 12.8 75.5 1014.4 3.9 NE 7.4 NNE 0.0 623.1
09:00 14.2 13.1 73.6 1014.4 2.8 NW 6.4 WSW 0.0 651.9
09:05 14.5 13.3 72.2 1014.2 1.2 SW 4.6 WSW 0.0 641.3
09:10 15.2 13.4 69.4 1014.2 0.9 W 3.2 W 0.0 691.4
09:15 15.9 13.6 66.6 1014.2 2.1 NE 4.2 NNE 0.0 675.5
09:20 16.1 14.0 65.7 1014.2 2.3 SSW 4.9 SSW 0.0 731.7
09:25 15.9 14.7 65.9 1014.2 1.5 NE 3.9 E 0.0 715.5
09:30 16.3 15.5 66.0 1014.2 4.5 N 10.2 N 0.0 726.3
09:35 16.3 16.4 65.3 1014.2 5.0 NNE 7.8 NNE 0.0 777.9
09:40 16.6 17.3 66.1 1014.2 4.7 NE 8.5 NNE 0.0 727.8
09:45 16.7 18.1 63.0 1014.3 3.1 S 7.1 S 0.0 433.8
09:50 17.2 18.5 60.9 1014.3 6.8 S 14.8 ESE 0.0 883.0
09:55 17.6 19.3 57.7 1014.3 5.4 WSW 12.4 SW 0.0 498.9
Màxima 17.6 19.3 100.0 1015.0 7.2 ESE 14.8 ESE 0.0 883.0
Mínima 5.3 5.2 57.7 1014.1
Total 0.0